Torna al catalogo

FLAMINGO-1

AttivoScienzaSSO
NORAD 67391·PAYLOAD·🇩🇪 Germany

Lanciato Jan 11, 2026 da Vandenberg Space Force Base

Loading…

Prossimi Passaggi (prossime 24 ore)

TLE

AggiornatoSource: Space-Track

Epoca: Sep 13, 2026, 23:03 UTC

1 67391U 26004AE  26256.96086033  .00001424  00000-0  73539-4 0  9996
2 67391  97.4611 254.5662 0006581  33.5971 326.5679 15.17911870 37215

Traccia FLAMINGO-1 in tempo reale con AllMySat

Download on the App Store